Location: Bonnie Lake
(37.2975°N, 119.1949°W)
Time: 09:07:56
(UTC+00:00)

Daily predictions for brighter satellites

Satellite Brightness Start Highest point End
(mag) Time Altitude Azimuth Time Altitude Azimuth Time Altitude Azimuth
Meteor 1-31 Rocket 4.1 12:05:06 10° NNE 12:08:40 38° E 12:12:12 10° SSE
Cosmos 1025 Rocket 2.9 12:10:36 69° S 12:11:07 87° E 12:15:24 10° N
USA 32 4.2 12:08:47 10° S 12:13:58 72° E 12:19:11 10° N
Cosmos 1470 4.3 12:13:01 10° N 12:16:41 37° E 12:20:17 10° SSE
ATLAS 2AS CENTAUR R/B 3.0 12:11:34 24° SW 12:16:48 84° WNW 12:24:57 10° NNE
COSMOS 2441 4.2 12:12:01 10° N 12:16:57 82° WNW 12:20:21 20° SSW
Cosmos 1707 4.3 12:14:09 10° SSE 12:17:44 36° E 12:21:21 10° NNE
Cosmos 1733 3.1 12:18:07 81° S 12:18:07 81° S 12:21:46 10° S
CENTAUR R/B 4.3 12:10:40 10° NNW 12:18:13 41° NE 12:26:17 10° ESE
Cosmos 2219 Rocket 2.4 12:22:52 43° W 12:23:26 44° WNW 12:28:47 10° N
Cosmos 1536 Rocket 3.6 12:24:39 53° WNW 12:24:39 53° WNW 12:28:37 10° N
USA 238 DEB 3.8 12:18:05 10° NNW 12:25:23 88° ENE 12:32:51 10° SSE
USA 238 3.8 12:18:12 10° NNW 12:25:29 87° ENE 12:32:57 10° SSE
Cosmos 921 Rocket 3.5 12:22:30 10° N 12:26:45 57° ENE 12:30:53 10° SSE
Cosmos 2237 Rocket 2.3 12:23:40 10° SSW 12:29:18 77° ESE 12:35:01 10° NNE
Cosmos 2074 Rocket 4.0 12:23:30 10° S 12:29:45 88° E 12:36:01 10° N
CZ-2C R/B 2.4 12:31:59 10° N 12:37:11 75° WNW 12:42:18 10° SSW
NOSS 0 Rocket 3.8 12:31:51 11° SSW 12:37:45 73° WNW 12:43:57 10° NNE
COSMOS 2428 3.3 12:37:46 31° W 12:38:52 34° WNW 12:43:59 10° N
Cosmos 2181 Rocket 4.1 12:33:53 10° NNW 12:39:58 50° W 12:45:57 10° SSW
GPS 2-05 Rocket1 3.9 12:42:59 22° S 12:42:59 22° S 12:44:50 10° SE
Cosmos 1980 3.6 12:40:13 10° SSW 12:45:51 72° WNW 12:51:31 10° NNE
COSMOS 2455 4.2 12:46:19 18° NW 12:47:02 19° NW 12:51:11 10° N
IDEFIX/ARIANE 42P 3.6 12:44:13 10° NNW 12:48:23 24° WNW 12:48:48 24° WNW
CZ-4B R/B 2.7 12:44:52 10° N 12:48:52 64° WNW 12:52:39 10° SSW
NOSS 3-2 (A) 4.1 12:44:19 10° NW 12:52:07 76° WSW 13:00:37 10° SSE
Cosmos 1140 Rocket 3.5 12:51:10 10° SSW 12:56:21 88° ESE 13:01:34 10° NNE
ALOS 3.9 12:53:21 10° NNE 12:57:42 37° E 13:02:00 10° SSE
Milstar 3 Cent rocket 4.0 12:55:20 10° SSW 12:58:55 18° SSE 13:02:08 10° ESE
Cosmos 489 Rocket 4.4 12:53:44 10° NNW 13:00:00 84° WSW 13:06:16 10° SSE
Cosmos 1606 Rocket 3.9 12:57:05 10° N 13:01:23 67° E 13:05:40 10° SSE
Okean 1-7 Rocket 4.1 12:59:25 10° S 13:03:45 64° E 13:08:11 10° NNE
Cosmos 614 Rocket 4.1 13:00:01 10° SW 13:05:05 51° WNW 13:10:11 10° N
Cosmos 1437 Rocket 4.1 13:04:14 10° SSE 13:07:49 41° E 13:11:24 10° NNE
Helios 1A Rocket 3.6 13:05:51 10° NNE 13:09:58 61° E 13:14:04 10° S
PSLV R/B 3.7 13:07:43 10° N 13:11:22 57° WNW 13:14:58 10° SSW
Meteor 1-4 Rocket 2.4 13:08:45 10° SSW 13:12:14 59° W 13:15:42 10° N
Cosmos 1953 2.2 13:08:20 10° NNW 13:12:22 72° W 13:16:20 10° S
Cosmos 292 Rocket 3.9 13:07:53 10° NNW 13:12:33 53° WSW 13:17:13 10° S
NOSS 3-2 (C) 4.1 13:06:28 10° NW 13:14:17 80° WSW 13:22:50 10° SSE
Cosmos 44 3.2 13:12:16 10° NNW 13:16:37 76° ENE 13:20:55 10° SE
Cosmos 1844 Rocket 4.4 13:18:04 12° WSW 13:18:04 12° WSW 13:19:21 10° WSW
Cosmos 1758 4.0 13:15:03 10° NNW 13:18:37 31° W 13:22:09 10° SSW
SL-16 R/B 2.5 13:14:53 10° SSW 13:20:30 76° ESE 13:26:11 10° NNE
COSMO-SKYMED 1 2.5 13:17:15 10° S 13:21:35 83° WSW 13:25:57 10° NNW
Meteor 1-16 Rocket 4.2 13:16:57 10° N 13:22:17 82° E 13:27:40 10° S
USA 234 4.0 13:19:11 10° S 13:24:51 31° SW 13:30:34 10° WNW
ERBS 4.2 13:24:48 12° WNW 13:26:33 16° NW 13:28:41 10° N
NOAA 6 4.4 13:22:00 10° NNE 13:27:11 71° ESE 13:32:19 10° S
NOSS 3-4 (A) 3.9 13:21:53 10° WSW 13:27:29 40° NW 13:33:23 10° NNE
NOSS 3-4 (C) 3.9 13:21:56 10° WSW 13:27:34 40° NW 13:33:30 10° NNE
USA 116 3.9 13:24:49 10° SSE 13:28:57 75° ENE 13:32:37 10° N
Meteor 2-5 Rocket 4.3 13:24:09 10° S 13:29:49 68° E 13:35:39 10° NNE
Cosmos 2154 Rocket 4.1 13:24:04 10° SSW 13:30:03 51° W 13:36:04 10° N
RESURS DK-1 2.3 13:26:10 10° SSW 13:30:18 84° WNW 13:34:27 10° NNE
SJ-12 3.9 13:26:38 10° N 13:30:40 61° WNW 13:34:41 10° SSW
Cosmos 2333 Rocket 4.0 13:30:18 10° WNW 13:32:51 13° NW 13:35:25 10° NNW
Cosmos 676 Rocket 4.2 13:28:12 10° SSW 13:33:22 54° WNW 13:38:32 10° N
FENGYUN 3A 3.8 13:30:33 10° NNE 13:36:01 89° ESE 13:41:28 10° SSW
Cosmos 2278 Rocket 2.6 13:30:54 10° NW 13:36:11 41° WSW 13:41:27 10° S
Okean O Rocket 1.6 13:37:10 10° N 13:41:34 68° WNW 13:45:53 10° SSW
